Location: Oroua River
(40.4333°S, 175.4333°E)
Time: 01:50:09
(UTC+00:00)

Cosmos 2221 Rocket - Pass Details

Date: 03 February 2023
Orbit: 618 x 647 km, 82.5° (Epoch: 30 March)

Event Time Altitude Azimuth Distance (km) Brightness Sun altitude
Exits shadow 16:08:36 15° 345° (NNW) 1,723 5.4 -14.1°
Maximum altitude 16:12:20 72° 262° (W) 678 3.6 -13.5°
Drops below altitude 10° 16:16:52 10° 176° (S) 2,045 6.8 -12.8°
Sets 16:19:08 0° 174° (S) 2,956 7.7 -12.5°
